Terug naar catalogus

COSMOS 2066

ActiefMilitairLEO
NORAD 20551·PAYLOAD·🇷🇺 Russia

Gelanceerd Apr 6, 1990 vanaf Plesetsk Cosmodrome

Loading…

Volgende Passages (komende 24 uur)

TLE

VersSource: Space-Track

Epoch: Sep 14, 2026, 12:46 UTC

1 20551U 90029C   26257.53229464 -.00000002  00000-0  86204-4 0  9997
2 20551  73.9825 190.2582 0050034 308.3297 166.0052 12.59714635675809

Volg COSMOS 2066 in realtime met AllMySat

Download on the App Store